Location: Taukkyan
(23.1052°N, 94.0030°E)
Time: 11:51:21
(UTC+00:00)

SAR-Lupe-1 - Pass Details

Date: 06 July 2020
Orbit: 480 x 486 km, 98.2° (Epoch: 15 July)

Event Time Altitude Azimuth Distance (km) Brightness Sun altitude
Rises 22:28:02 0° 181° (S) 2,532 7.4 -8.2°
Reaches altitude 10° 22:30:09 10° 189° (S) 1,656 6.4 -7.8°
Maximum altitude 22:33:31 40° 260° (W) 723 4.5 -7.1°
Drops below altitude 10° 22:36:54 10° 331° (NNW) 1,666 6.8 -6.4°
Sets 22:39:04 0° 339° (NNW) 2,549 7.8 -6.0°
